Regional Weather Roundup
Issued by NWS

Home | Current Version | Previous Version | Graphics & Text | Print | Product List | Glossary On
Versions: 1 2 3 4 5 6 7 8 9 10 11 12 13 14 15 16 17 18 19 20 21 22 23 24 25 26 27 28 29 30 31 32 33 34 35 36 37 38 39 40 41 42 43 44 45 46 47 48 49 50
000
ASUS44 KMEG 141200
RWRTN
TENNESSEE HOURLY STATE WEATHER ROUNDUP
NATIONAL WEATHER SERVICE MEMPHIS TN
700 AM CDT MON JUL 14 2014

TNZ002-004-019-021-049-052-054-088>092-141300-
WEST TENNESSEE

CITY           SKY/WX    TMP DP  RH WIND       PRES   REMARKS
MEMPHIS INTL   MOSUNNY   79  72  79 SW7       29.98R
NWS MEMPHIS      N/A     78 N/A N/A MISG        N/A
JACKSON        SUNNY     75  72  90 S5        29.99R
DYERSBURG      PTSUNNY   75  63  64 N12       30.01R
$$

TNZ008-025-027-028-033-062-065-066-141300-
NORTH MIDDLE TENNESSEE

CITY           SKY/WX    TMP DP  RH WIND       PRES   REMARKS
NASHVILLE      CLOUDY    78  72  81 S3        30.00R
CLARKSVILLE    PTSUNNY   78  73  84 W7        29.98R
CROSSVILLE     SUNNY     72  69  90 VRB3      30.08R FOG
$$

TNZ061-075-076-078-094-096-097-141300-
SOUTH MIDDLE TENNESSEE

CITY           SKY/WX    TMP DP  RH WIND       PRES   REMARKS
$$

TNZ017-018-042-046-047-141300-
NORTHEAST TENNESSEE

CITY           SKY/WX    TMP DP  RH WIND       PRES   REMARKS
TRI CITIES     PTSUNNY   71  68  90 CALM      30.06R
$$

TNZ012-013-036-069-073-074-141300-
CENTRAL EAST TENNESSEE

CITY           SKY/WX    TMP DP  RH WIND       PRES   REMARKS
KNOXVILLE      MOSUNNY   75  70  84 SW5       30.03S
OAK RIDGE      SUNNY     75  70  84 W3        30.05R
$$

TNZ083-085-099-141300-
SOUTHEAST TENNESSEE

CITY           SKY/WX    TMP DP  RH WIND       PRES   REMARKS
CHATTANOOGA    MOSUNNY   76  70  82 SW3       30.04S
$$

SKY/WX REPORTED AS FAIR MEANS FEW OR NO CLOUDS BELOW
12 THOUSAND FEET.



USA.gov is the U.S. government's official web portal to all federal, state and local government web resources and services.